User: anonymous   Login
Location: Unspecified
(0.0000°N, 0.0000°E)
Time: 09:28:58
(UTC+00:00)
Language:

AEROCUBE 2 - Orbit

View from above orbital plane
View from above orbital plane
View from above satellite
View from above satellite

Ground track
Ground track

The orbit data is extracted from the following two-line orbital elements,

1 31133U 07012R   17327.42180671  .00000261  00000-0  63273-4 0  9994
2 31133  98.0515 278.1710 0080973   2.3283 357.8278 14.58925183563653
Epoch (UTC): 23 November 2017 10:07:24
Eccentricity: 0.0080973
inclination: 98.0515°
perigee height: 639 km
apogee height: 754 km
right ascension of ascending node: 278.1710°
argument of perigee: 2.3283°
revolutions per day: 14.58925183
mean anomaly at epoch: 357.8278°
orbit number at epoch: 56365

The dashed part of the orbit path shows where the satellite is in the earth's shadow,  

DLR